This is the latest recevied weather packets stored in our database for station/object KC4GS-13. If no packets are shown the sender has not sent any weather packets the latest 10 day(s).
| Time | Temp. | Humidity | Pressure | Rain* | Wind** | Luminosity | Snow |
|---|---|---|---|---|---|---|---|
| 1787662172 | 21.11° C | 86% | 1019.3 hPa | 0 mm | - | 32 W/m² | - |
| 1787661868 | 21.11° C | 86% | 1019.2 hPa | 0 mm | - | 29 W/m² | - |
| 1787661567 | 21.11° C | 86% | 1019.2 hPa | 0 mm | - | 33 W/m² | - |
| 1787661266 | 21.11° C | 87% | 1019.1 hPa | 0 mm | - | 35 W/m² | - |
| 1787660965 | 21.11° C | 87% | 1019 hPa | 0 mm | - | 35 W/m² | - |
| 1787660660 | 20.56° C | 87% | 1018.9 hPa | 0 mm | - | 39 W/m² | - |
| 1787660355 | 20.56° C | 88% | 1018.9 hPa | 0 mm | - | 36 W/m² | - |
| 1787660051 | 20.56° C | 88% | 1019 hPa | 0 mm | - | 34 W/m² | - |
| 1787659749 | 20.56° C | 88% | 1018.9 hPa | 0 mm | - | 32 W/m² | - |
| 1787659449 | 20.56° C | 89% | 1019 hPa | 0 mm | - | 34 W/m² | - |
| 1787659143 | 20.56° C | 90% | 1018.8 hPa | 0 mm | - | 40 W/m² | - |
| 1787658838 | 20° C | 90% | 1019.1 hPa | 0 mm | - | 36 W/m² | - |
| 1787658537 | 20° C | 90% | 1018.7 hPa | 0 mm | - | 29 W/m² | - |
| 1787658234 | 20° C | 90% | 1018.4 hPa | 0 mm | - | 24 W/m² | - |
| 1787657934 | 20° C | 90% | 1018.6 hPa | 0 mm | - | 20 W/m² | - |
| 1787657629 | 19.44° C | 90% | 1018.4 hPa | 0 mm | - | 17 W/m² | - |
| 1787657324 | 19.44° C | 90% | 1018.4 hPa | 0 mm | - | 12 W/m² | - |
| 1787657020 | 19.44° C | 90% | 1018.3 hPa | 0 mm | - | 7 W/m² | - |
| 1787656717 | 19.44° C | 90% | 1018.2 hPa | 0 mm | - | 4 W/m² | - |
| 1787656411 | 19.44° C | 90% | 1018.3 hPa | 0 mm | - | 3 W/m² | - |
| 1787656105 | 19.44° C | 90% | 1017.9 hPa | 0 mm | - | 1 W/m² | - |
| 1787655803 | 19.44° C | 90% | 1018.1 hPa | 0 mm | - | 1 W/m² | - |
| 1787655500 | 19.44° C | 90% | 1018 hPa | 0 mm | - | 0 W/m² | - |
| 1787655195 | 19.44° C | 90% | 1017.9 hPa | 0 mm | - | 0 W/m² | - |
| 1787654891 | 18.89° C | 90% | 1017.9 hPa | 0 mm | - | 0 W/m² | - |
* Rain latest hour (hover to see other rain measurements)
** Current wind speed in m/s (hover to see current wind gust speed)